Regional Weather Roundup
Issued by NWS

Home | Current Version | Previous Version | Text Only | Print | Product List | Glossary On
Versions: 1 2 3 4 5 6 7 8 9 10 11 12 13 14 15 16 17 18 19 20 21 22 23 24 25 26 27 28 29 30 31 32 33 34 35 36 37 38 39 40 41 42 43 44 45 46 47 48 49 50
000
ASUS44 KFWD 301603
RWRTX
NORTH TEXAS HOURLY WEATHER ROUNDUP
NATIONAL WEATHER SERVICE FORT WORTH TX
1100 AM CDT SAT AUG 30 2014

NOTE: "FAIR" INDICATES FEW OR NO CLOUDS BELOW 12,000 FEET WITH NO
SIGNIFICANT WEATHER AND/OR OBSTRUCTIONS TO VISIBILITY.

TXZ118-119-301700-
DALLAS/FORT WORTH METROPLEX

CITY           SKY/WX    TMP DP  RH WIND       PRES   REMARKS
DFW AIRPORT    MOSUNNY   83  72  69 S5        29.96F
DALLAS LOVE    PTSUNNY   80  72  76 SE6       29.97F
FTW MEACHAM    SUNNY     86  71  60 VRB7      29.96S HX  91
DAL-EXECUTIVE  CLOUDY    81  72  74 SE8       29.98S
FTW-ALLIANCE   MOSUNNY   84  71  65 VRB5      29.96S
FTW-NAS-JRB    MOSUNNY   88  69  53 CALM      30.00S HX  92
FTW-SPINKS     MOSUNNY   82  72  69 S5        29.98F
ARLINGTON      MOSUNNY   83  71  67 SE5       29.97F
GRAND PRAIRIE  PTSUNNY   81  70  69 SE3       29.99S
ADDISON        PTSUNNY   81  72  74 S3        29.98S
MESQUITE       PTSUNNY   79  72  78 S5        29.99R
LANCASTER      CLOUDY    78  71  78 S3        29.99S
$$

TXZ091>094-102>105-117-120-121-131>134-301700-
NORTH CENTRAL TEXAS

CITY           SKY/WX    TMP DP  RH WIND       PRES   REMARKS
SHRMAN/DENISON PTSUNNY   83  71  66 SE7       29.98F
GAINESVILLE    SUNNY     83  72  71 W5        29.99S
BOWIE          SUNNY     85  72  64 SW5       29.98F HX  90
BRIDGEPORT     MOSUNNY   83  69  61 CALM      29.99S
DECATUR        SUNNY     82  70  65 CALM      29.98S
DENTON         SUNNY     84  72  67 VRB3      29.96F
MCKINNEY       CLOUDY    77  73  87 S6        29.98S
GREENVILLE     PTSUNNY   81  70  69 S3        29.99S
ROCKWALL       MOSUNNY   79  73  81 S3        29.97F
TERRELL        CLOUDY    82  74  76 CALM      29.99S
WAXAHACHIE     PTSUNNY   80  70  73 E3        30.00S
CLEBURNE       PTSUNNY   82  75  78 CALM      30.00R
GRANBURY       MOSUNNY   87  71  59 CALM      29.98S HX  93
$$

TXZ083>090-098>101-113>116-127>130-139>142-154-155-301700-
WESTERN NORTH TEXAS

CITY           SKY/WX    TMP DP  RH WIND       PRES   REMARKS
WICHITA FALLS  SUNNY     84  71  65 W7        29.97S
WF-KICKAPOO    SUNNY     84  70  61 NW5       29.98F
VERNON         SUNNY     83  69  62 SW3       29.99S
ABILENE        SUNNY     87  69  54 NW8       30.02R HX  91
ABILENE-DYESS  SUNNY     85  71  63 NW7       30.01R HX  90
BRECKENRIDGE   SUNNY     87  70  57 NW6       29.98S HX  91
GRAHAM         SUNNY     85  70  60 W6        29.97S HX  90
MINERAL WELLS  SUNNY     84  71  65 VRB5      29.96S
STEPHENVILLE   PTSUNNY   85  70  61 NW6       30.01S
COMANCHE         N/A     84  70  62 W3        29.99S
BROWNWOOD      SUNNY     84  70  61 W6        29.99S
COLEMAN        SUNNY     85  67  54 W10       30.00S
BRADY          MOSUNNY   86  72  62 W5        30.00S HX  92
$$

TXZ143>147-156>162-174-175-301700-
CENTRAL TEXAS

CITY           SKY/WX    TMP DP  RH WIND       PRES   REMARKS
WACO           CLOUDY    80  71  74 NW3       29.98R
WACO-TSTC      MOSUNNY   82  72  69 CALM      29.97S
WACO-MCGREGOR  MOSUNNY   81  70  69 CALM      29.99S
HILLSBORO      MOSUNNY   82  70  68 CALM      29.98S
CORSICANA      CLOUDY    80  71  74 CALM      29.99S
MEXIA          PTSUNNY   79  72  79 CALM      29.98R
HEARNE           N/A     79  72  78 CALM      29.98S
CAMERON        CLOUDY    82  73  72 E3        29.97S
TEMPLE         MOSUNNY   82  68  61 CALM      29.97S
KILLEEN        MOSUNNY   84  72  65 CALM      29.98R
KILLEEN-SKYLRK MOSUNNY   82  70  65 E3        29.98S
FORT HOOD      SUNNY     88  71  57 VRB3      29.98R HX  94
LAMPASAS       SUNNY     85  73  65 CALM      29.97F HX  91
$$

TXZ095>097-106>112-122>126-135>138-148>153-164>167-301700-
EAST TEXAS

CITY           SKY/WX    TMP DP  RH WIND       PRES   REMARKS
PARIS          MOSUNNY   82  68  61 CALM      30.00S
SULPHUR SPRNGS MOSUNNY   81  70  70 CALM      30.01S
MOUNT PLEASANT CLOUDY    79  74  83 CALM      30.01S
GILMER         CLOUDY    79  73  83 SE6       30.01S
MINEOLA        PTSUNNY   81  72  74 SE3       30.00R
TYLER          PTSUNNY   83  71  67 N5        29.98S
LONGVIEW       MOSUNNY   84  72  67 SE6       29.97S
MARSHALL       PTSUNNY   82  74  76 CALM      30.00S
ATHENS         MOSUNNY   81  70  69 CALM      29.97S
PALESTINE      PTSUNNY   79  72  78 CALM      29.99S
JACKSONVILLE   CLOUDY    77  72  85 CALM      30.01S
HENDERSON      CLOUDY    82  71  69 SE3       29.99S
NACOGDOCHES    CLOUDY    79  72  78 E3        29.98S
LUFKIN         CLOUDY    81  73  76 CALM      29.98R
$$

SUPPLEMENTAL OBSERVATIONS (CENTRAL)

CITY           SKY/WX    TMP DP  RH WIND       PRES   REMARKS
$$

SUPPLEMENTAL OBSERVATIONS (WEST)

CITY           SKY/WX    TMP DP  RH WIND       PRES   REMARKS
$$

SUPPLEMENTAL OBSERVATIONS (EAST)

CITY           SKY/WX    TMP DP  RH WIND       PRES   REMARKS
$$

SUPPLEMENTAL OBSERVATIONS ARE A COLLECTION OF AUTOMATED INSTRUMENTS
THAT ARE MAINTAINED BY A VARIETY OF FEDERAL AND STATE AGENCIES.
CERTAIN ELEMENTS...SUCH AS HUMIDITY VALUES AND SUSTAINED WIND
SPEEDS...MAY BE APPROXIMATED.



USA.gov is the U.S. government's official web portal to all federal, state and local government web resources and services.